sat.trackr.live / text

‹ back to catalog

STARLINK-35233

NORAD 65678 · 2025-212C

PAYLOAD ACTIVE UNKNOWN

§ Identity

Operator
Country
US
Launch date
2025-09-21
Launch site
AFETR
Launch vehicle
Mass (kg)
RCS (m²)

Purposes: comms

External: N2YO · Heavens-Above · Gunter

§ Orbital elements

Epoch: 2026-05-24T20:59:07.948320Z

Period
94.10 min
Inclination
53.1595°
Eccentricity
0.0001143
Mean motion
15.30209278 rev/d
Perigee alt
474.4 km
Apogee alt
476.0 km
Semi-major
6,853.3 km
B*
9.7321e-4
RAAN
352.0977°
Arg perigee
63.4294°
Mean anomaly
296.6824°
Rev number
3,891

§ Raw data

STARLINK-352331 65678U 25212C   26144.87439755  .00028584  00000+0  97321-3 0  99902 65678  53.1595 352.0977 0001143  63.4294 296.6824 15.30209278 38917

JSON: /api/v1/satellites/65678 · /tle

For live sub-satellite position, see the globe view (requires WebGL).

§ Visibility from observer

Set your observer location to see the next 7 days of passes ≥ 10°. The values pass through the URL so the page stays shareable.

No JS? Fill the form by hand. The geolocation button needs JavaScript.